TimeCST,TemperatureF,Dew PointF,Humidity,Sea Level PressureIn,VisibilityMPH,Wind Direction,Wind SpeedMPH,Gust SpeedMPH,PrecipitationIn,Events,Conditions,WindDirDegrees,DateUTC
12:53 AM,53.1,51.1,93,29.52,7.0,East,6.9,-,0.01,Rain,Light Rain,80,2013-01-30 06:53:00
1:53 AM,53.1,51.1,93,29.52,8.0,SE,5.8,-,0.02,Rain,Light Rain,130,2013-01-30 07:53:00
2:35 AM,53.6,51.8,94,29.50,9.0,SE,8.1,-,0.01,Rain,Light Rain,140,2013-01-30 08:35:00
2:53 AM,53.1,51.1,93,29.52,10.0,South,10.4,-,0.01,Rain,Light Rain,190,2013-01-30 08:53:00
3:17 AM,53.6,51.8,94,29.50,10.0,SE,9.2,-,0.00,Rain,Light Rain,140,2013-01-30 09:17:00
3:48 AM,51.8,51.8,100,29.46,10.0,SE,11.5,-,0.00,,Overcast,140,2013-01-30 09:48:00
3:53 AM,52.0,51.1,97,29.45,10.0,SE,10.4,-,0.00,,Overcast,140,2013-01-30 09:53:00
4:53 AM,53.1,51.1,93,29.47,10.0,South,9.2,-,N/A,,Overcast,180,2013-01-30 10:53:00
5:53 AM,53.1,51.1,93,29.46,10.0,South,10.4,-,N/A,,Mostly Cloudy,190,2013-01-30 11:53:00
6:53 AM,53.1,51.1,93,29.46,10.0,South,17.3,27.6,N/A,,Overcast,190,2013-01-30 12:53:00
7:53 AM,53.1,51.1,93,29.47,10.0,SSW,13.8,20.7,N/A,,Overcast,200,2013-01-30 13:53:00
8:11 AM,53.6,51.8,94,29.47,10.0,SSW,15.0,-,N/A,,Overcast,200,2013-01-30 14:11:00
8:53 AM,54.0,51.1,90,29.45,10.0,SSW,17.3,27.6,N/A,,Overcast,210,2013-01-30 14:53:00
9:48 AM,55.4,51.8,88,29.45,10.0,SSW,19.6,27.6,N/A,,Overcast,210,2013-01-30 15:48:00
9:53 AM,55.0,51.1,86,29.45,10.0,SSW,17.3,25.3,N/A,,Overcast,210,2013-01-30 15:53:00
10:29 AM,53.6,48.2,82,29.44,10.0,West,18.4,-,0.00,Rain,Light Rain,270,2013-01-30 16:29:00
10:49 AM,53.6,50.0,88,29.44,10.0,WSW,16.1,-,0.01,,Mostly Cloudy,240,2013-01-30 16:49:00
10:53 AM,54.0,48.9,83,29.44,10.0,WSW,17.3,-,0.01,,Mostly Cloudy,240,2013-01-30 16:53:00
11:05 AM,50.0,44.6,82,29.45,10.0,WNW,20.7,29.9,0.00,Rain,Light Rain,290,2013-01-30 17:05:00
11:48 AM,46.4,41.0,81,29.50,10.0,West,28.8,35.7,0.00,,Overcast,280,2013-01-30 17:48:00
11:53 AM,46.9,39.9,77,29.49,10.0,West,24.2,35.7,0.00,,Overcast,280,2013-01-30 17:53:00
12:20 PM,46.4,37.4,71,29.50,10.0,West,26.5,34.5,N/A,,Overcast,280,2013-01-30 18:20:00
12:53 PM,46.9,36.0,66,29.50,10.0,West,24.2,-,N/A,,Partly Cloudy,270,2013-01-30 18:53:00
1:53 PM,46.0,32.0,58,29.53,10.0,West,25.3,33.4,N/A,,Overcast,280,2013-01-30 19:53:00
2:53 PM,41.0,32.0,70,29.60,10.0,WNW,20.7,31.1,N/A,,Overcast,290,2013-01-30 20:53:00
3:53 PM,37.9,27.0,65,29.66,10.0,WNW,23.0,34.5,N/A,,Overcast,300,2013-01-30 21:53:00
4:53 PM,36.0,24.1,62,29.72,10.0,WNW,27.6,36.8,N/A,,Overcast,300,2013-01-30 22:53:00
5:53 PM,34.0,24.1,67,29.76,10.0,WNW,24.2,32.2,N/A,,Overcast,290,2013-01-30 23:53:00
6:53 PM,34.0,24.1,67,29.81,10.0,WNW,17.3,-,N/A,,Overcast,290,2013-01-31 00:53:00
7:53 PM,34.0,24.1,67,29.85,10.0,WNW,12.7,-,N/A,,Overcast,290,2013-01-31 01:53:00
8:53 PM,33.1,23.0,66,29.88,10.0,West,17.3,23.0,N/A,,Overcast,280,2013-01-31 02:53:00
9:53 PM,33.1,21.0,61,29.91,10.0,WNW,15.0,-,N/A,,Overcast,290,2013-01-31 03:53:00
10:53 PM,33.1,21.9,64,29.94,10.0,West,15.0,-,N/A,,Overcast,280,2013-01-31 04:53:00
11:53 PM,32.0,19.9,61,29.97,10.0,West,25.3,-,N/A,,Overcast,280,2013-01-31 05:53:00